Starlink 31179

operational
NORAD ID: 58750 Int'l Des: 2024-005 Owner: SPXS Country: US Constellation: starlink
LEOCIRCULAR

Über Starlink 31179

Beschreibung wird geladen...

Live-Position

3D-Globus wird geladen...

Nächste Überflüge

Höhenverlauf

Altitude vs Time

uPlot chart will show altitude changes over time

Zweizeiliger Elementsatz

1 58750U 24005Y 25310.63566979 .00000899 00000-0 81584-4 0 9994
2 58750 43.0030 170.0501 0001176 263.1825 96.8883 15.02539321101918
Epoch: 6. Nov. 2025 • Age: 23 hours

Aktueller Status

Höhe 563.0 km
Geschwindigkeit 7.59 km/s
Subsatellitenpunkt 42.91°N, 9.22°W
Startdatum 7. Jan. 2024
Alter 1.8 years
Typ internet

Technische Details

Klassifizierung Payload
Masse 730.00 kg
Trockenmasse 700.00 kg
Gesamtmasse 730.00 kg
Länge 0.30 m
Durchmesser 4.10 m
Spannweite 29.00 m
Form Box + pan
Hersteller SPXS
Bus-Typ Starlink V2M
Phasenstatus In Orbit
Besitzer/Staat SPXS/US

Große Konstellationen

Loading constellations...